Flag for U.S.A. Weather past 2 weeks in Carson City, Nevada, U.S.A.

Now
60 °F

Mostly cloudy.


Feels Like: 60 °F
Forecast: 31 / 55 °F
Wind: 9 mph from West

Location: Reno Tahoe International Airport

Current Time: Dec 21, 2014 at 4:20:24 PM

Latest Report: Dec 21, 2014 at 3:55 PM


Visibility: 10 mi

Pressure: 30.14 "Hg

Humidity: 47%

Dew point: 40 °F

Location of Carson CityLocation

Historic Weather in Carson City — Graph

°F

Carson City temperature yesterday

Maximum temperature yesterday: 52 °F (at 11:55 PM)
Minimum temperature yesterday: 40 °F (at 1:55 AM)
Average temperature yesterday: 46 °F

Past Weeks' High & Low Weather Summary

 TemperatureHumidityPressure
High62 °F (Dec 11, 10:55 AM)100% (Dec 15, 9:55 AM)30.31 "Hg (Dec 15, 9:55 AM)
Low26 °F (Dec 14, 1:55 AM)21% (Dec 11, 6:55 AM)29.44 "Hg (Dec 11, 11:55 AM)
Average42 °F69%30.02 "Hg
* Reported Dec 6 2:55 PM — Dec 21 2:55 PM, Carson City, Weather by CustomWeather, © 2014

Note: Actual official high and low records may vary slightly from our data, if they occured in-between our weather recording intervals... More about our weather records

Advertising

Carson City weather history for previous 24 hours

 ConditionsComfort  
Time TempWeatherWind HumidityBarometerVisibility
2:55 PM
Dec 21
61 °FCloudy.13 mph46%30.12 "Hg10 mi
1:55 PM62 °FMostly cloudy.14 mph43%30.11 "Hg10 mi
12:55 PM61 °FBroken clouds.23 mph46%30.09 "Hg10 mi
11:55 AM62 °FBroken clouds.24 mph44%30.08 "Hg10 mi
10:55 AM59 °FBroken clouds.22 mph49%30.12 "Hg10 mi
9:55 AM57 °FBroken clouds.26 mph51%30.14 "Hg10 mi
8:55 AM55 °FBroken clouds.10 mph55%30.15 "Hg10 mi
7:55 AM54 °FBroken clouds.17 mph59%30.13 "Hg10 mi
6:55 AM54 °FPartly cloudy.15 mph59%30.07 "Hg10 mi
5:55 AM54 °FPartly cloudy.20 mph59%30.06 "Hg10 mi
4:55 AM54 °FPassing clouds.22 mph59%30.06 "Hg10 mi
3:55 AM53 °FPassing clouds.17 mph61%30.07 "Hg10 mi
2:55 AM53 °FPartly cloudy.14 mph59%30.08 "Hg10 mi
1:55 AM52 °FPassing clouds.13 mph61%30.09 "Hg10 mi
12:55 AM52 °FPassing clouds.15 mph59%30.09 "Hg10 mi
11:55 PM
Dec 20
52 °FMostly cloudy.13 mph59%30.10 "Hg10 mi
10:55 PM51 °FPassing clouds.14 mph59%30.10 "Hg10 mi
9:55 PM51 °FMostly cloudy.18 mph59%30.11 "Hg10 mi
8:55 PM50 °FPartly cloudy.7 mph59%30.11 "Hg10 mi
7:55 PM46 °FPartly cloudy.3 mph66%30.10 "Hg10 mi
6:55 PM49 °FOvercast.6 mph59%30.08 "Hg10 mi
5:55 PM49 °FOvercast.No wind57%30.09 "Hg10 mi
4:55 PM48 °FOvercast.5 mph61%30.05 "Hg10 mi
Weather by CustomWeather, © 2014

See weather overviewHow to use our weather pages